Regional Weather Roundup
Issued by NWS Upton, NY

Current Version | Previous Version | Graphics & Text | Print | Product List | Glossary Off
Versions: 1 2 3 4 5 6 7 8 9 10 11 12 13 14 15 16 17 18 19 20 21 22 23 24 25 26 27 28 29 30 31 32 33 34 35 36 37 38 39 40 41 42 43 44 45 46 47 48 49 50

000
ASUS41 KOKX 271709
RWROKX

REGIONAL WEATHER ROUNDUP
NATIONAL WEATHER SERVICE NEW YORK NY
100 PM EDT THU APR 27 2017

NOTE: "FAIR" INDICATES FEW OR NO CLOUDS BELOW 12,000 FEET WITH NO
SIGNIFICANT WEATHER AND/OR OBSTRUCTIONS TO VISIBILITY.

NYZ071-072-176-178-NJZ106-104-271800-
NEW YORK CITY METRO AREA

CITY           SKY/WX    TMP DP  RH WIND       PRES   REMARKS
Central Park   CLOUDY    67  58  72 S9        29.92F
Wall St Helipt CLOUDY    67  57  70 CALM      29.91F
Bronx Bot Gard   N/A     68  55  64 E3        29.90F
LaGuardia APRT CLOUDY    68  57  68 S9        29.90S
Kennedy INTL   CLOUDY    63  58  83 S9        29.93S
Breezy Point     N/A     57 N/A N/A SE6         N/A
Newark/Liberty CLOUDY    68  57  68 SE7       29.90F
Teterboro      CLOUDY    69  58  67 SE6       29.89F
$$

NYZ177-179-078>081-271800-
LONG ISLAND NEW YORK

CITY           SKY/WX    TMP DP  RH WIND       PRES   REMARKS
Jones Beach      N/A     57 N/A N/A S6          N/A
Matinecock PT  NOT AVBL
Farmingdale    CLOUDY    65  57  75 S9        29.92S
MacArthur/ISP  CLOUDY    65  57  75 S10       29.92R
Shirley        CLOUDY    65  58  78 S9        29.93S
Mt Sinai Harb    N/A    N/A N/A N/A E5          N/A
Westhampton    PTSUNNY   65  57  75 SW9       29.94S
East Hampton   CLOUDY    63  57  80 SW6       29.92S
Montauk          N/A     61  56  83 VRB3      29.94
$$

NYZ052-065-067-271800-
HUDSON VALLEY

CITY           SKY/WX    TMP DP  RH WIND       PRES   REMARKS
White Plains   PTSUNNY   65  57  75 VRB5      29.91S FOG
Larchmont Harb   N/A     54 N/A N/A NE6         N/A
Croton O-T Hud   N/A     64 N/A N/A S3          N/A
Newburgh       CLOUDY    66  59  77 W7        29.91F
Montgomery     CLOUDY    68  58  70 S3        29.88F
Poughkeepsie   CLOUDY    65  56  72 VRB3      29.89S
Albany         CLOUDY    67  56  67 S12       29.88S
$$

NJZ001-105-106-008-010-013-015-019>022-104-271800-
NEW JERSEY

CITY           SKY/WX    TMP DP  RH WIND       PRES   REMARKS
Newark/Liberty CLOUDY    68  57  68 SE7       29.90F
Teterboro      CLOUDY    69  58  67 SE6       29.89F
Caldwell       CLOUDY    67  57  70 S7        29.90F
Somerville     CLOUDY    72  61  68 SE6       29.87F
Linden         CLOUDY    69  56  64 CALM      29.90F
Sussex         CLOUDY    69  60  73 S6        29.89F
Andover          N/A     68  58  70 VRB5      29.89F
Trenton        MOSUNNY   72  61  68 S6        29.88F
Millville      CLOUDY    74  65  73 E9        29.88F
Atlantic City  CLOUDY    67  58  72 SE9       29.92S
Wrightstown    PTSUNNY   74  62  65 S6        29.86S
Toms River     PTSUNNY   72  61  68 S12       29.91F
Belmar         CLOUDY    67  58  72 SE7       29.92F
$$

PAZ047>061-062-071-271800-
EASTERN PENNSYLVANIA

CITY           SKY/WX    TMP DP  RH WIND       PRES   REMARKS
Philadelphia   PTSUNNY   76  62  62 S6        29.87F
Allentown      PTSUNNY   73  59  61 CALM      29.87F
Scranton       MOSUNNY   72  59  63 VRB7G17   29.84F
$$

CTZ002-004>006-009-010-012-RIZ004-006-007-MAZ004-011-015-271800-
SOUTHERN NEW ENGLAND
 IN CT

CITY           SKY/WX    TMP DP  RH WIND       PRES   REMARKS
Bradley INTL   CLOUDY    64  55  72 SE5       29.91F
Hartford       CLOUDY    64  56  75 E3        29.91S
Danbury        CLOUDY    62  58  86 CALM      29.92F
Wtrbury/Oxford CLOUDY    63  55  77 S3        29.93S
Bridgeport     CLOUDY    64  58  80 S5        29.92S
Meriden        CLOUDY    65  57  75 VRB5      29.92R
New Haven      CLOUDY    64  59  83 S6        29.92S
Chester          N/A     63  57  82 S3        29.93R
Groton         FOG       56  55  97 S5        29.92S VSB 1/2
Wilimantic     CLOUDY    65  57  75 S7        29.92F

 IN RI

CITY           SKY/WX    TMP DP  RH WIND       PRES   REMARKS
Providence     CLOUDY    63  58  83 S6        29.92F
Block Island   CLOUDY    56  54  93 SW10      29.95S
Westerly       PTSUNNY   61  57  87 S9        29.94S
 IN MA

CITY           SKY/WX    TMP DP  RH WIND       PRES   REMARKS
Boston         MOSUNNY   55  54  96 E9        29.92F
Worcester      CLOUDY    61  54  77 CALM      29.92F
Westfield      CLOUDY    64  56  75 E5        29.90F
Provincetown   CLOUDY    50  48  93 NW5       29.94F
Nantucket      MOSUNNY   61  54  77 N9        29.92F
$$

ANZ330-335-338-340-345-350-353-355-271800-
COASTAL MARINE OBSERVATIONS


STATION/POSITION TIME  SKY/WX   TEMP    WIND        PRES    VSBY  WAVE
                                AIR SEA DIR/SP/G                  HT/PER
                 (UTC)          (F)     (DEG/KT/KT) (MB)    (MI)  (FT/S)
NY HARB ENTRANCE 1550            52 50  170/  6/  6 1013.5          5/11
20 S FIRE ISLAND 1650            53 51  150/  4/  6 1013.3          6/10
GREAT SOUTH BAY  1630            56 58  170/  4/  6   N/A
23 SSW MONTAUK P 1550            49 47              1014.1          7/10
15 E BARNEGAT LI 1630               52                N/A           6/11
HUDSON CANYON    1550            53 51  120/  4/  4 1013.9          7/ 9
KINGS POINT      1648            65 49  190/  4/  5 1012.6
EXECUTION ROCKS  NOT AVBL
CENTRAL LI SOUND NOT AVBL
EASTERN LI SOUND NOT AVBL
ROBBINS REEF     1648            60     170/ 14/ 15 1013.0
$$


>>>>>>>>>>>>>>>>>>>>>>>>>>>> KEY <<<<<<<<<<<<<<<<<<<<<<<<<<<
>                                                          <
>     SKY/WX - Sky Condition/Present Weather               <
>     TMP    - Temperature in Fahrenheit                   <
>     DP     - Dew Point in Fahrenheit                     <
>     RH     - Relative Humidity in Percent                <
>     WIND   - Direction (from) and Speed in MPH           <
>     PRES   - Mean Sea Level Pressure (inches of Hg)      <
>     WCI    - Wind Chill Index                            <
>     VSB    - VISIBILITY IN MILES                         <
>     HX     - HEAT INDEX                                  <
>     TC     - TEMPERATURE IN CELSIUS                      <
>     VRB    - VARIABLE WIND DIRECTION                     <
>                                                          <
>>>>>>>>>>>>>>>>>>>>>>>>>>>> KEY <<<<<<<<<<<<<<<<<<<<<<<<<<<



USA.gov is the U.S. government's official web portal to all federal, state and local government web resources and services.